This is the latest recevied weather packets stored in our database for station/object KM4KMS. If no packets are shown the sender has not sent any weather packets the latest 10 day(s).
| Time | Temp. | Humidity | Pressure | Rain* | Wind** | Luminosity | Snow |
|---|---|---|---|---|---|---|---|
| 1777504674 | 17.22° C | 63% | 1011 hPa | 0 mm | - | 88 W/m² | - |
| 1777504371 | 16.67° C | 63% | 1011 hPa | 0 mm | - | 85 W/m² | - |
| 1777504070 | 17.22° C | 63% | 1010.8 hPa | 0 mm | - | 42 W/m² | - |
| 1777503767 | 17.78° C | 61% | 1010.9 hPa | 0 mm | - | 105 W/m² | - |
| 1777503464 | 17.78° C | 61% | 1010.8 hPa | 0 mm | - | 98 W/m² | - |
| 1777503159 | 17.78° C | 61% | 1010.8 hPa | 0 mm | - | 165 W/m² | - |
| 1777502857 | 17.78° C | 65% | 1010.9 hPa | 0 mm | - | 186 W/m² | - |
| 1777502555 | 17.78° C | 63% | 1011 hPa | 0 mm | - | 190 W/m² | - |
| 1777502252 | 17.78° C | 63% | 1011.1 hPa | 0 mm | - | 199 W/m² | - |
| 1777501949 | 17.78° C | 64% | 1011 hPa | 0 mm | - | 238 W/m² | - |
| 1777501646 | 17.22° C | 66% | 1010.9 hPa | 0 mm | - | 186 W/m² | - |
| 1777501342 | 17.22° C | 67% | 1010.8 hPa | 0 mm | - | 98 W/m² | - |
| 1777501040 | 17.78° C | 66% | 1011 hPa | 0 mm | - | 84 W/m² | - |
| 1777500738 | 18.33° C | 63% | 1011 hPa | 0 mm | - | 259 W/m² | - |
| 1777500435 | 18.89° C | 64% | 1011 hPa | 0 mm | - | 343 W/m² | - |
| 1777500130 | 18.89° C | 66% | 1011 hPa | 0 mm | - | 357 W/m² | - |
| 1777499828 | 18.33° C | 64% | 1011 hPa | 0 mm | - | 371 W/m² | - |
| 1777499524 | 18.33° C | 66% | 1010.6 hPa | 0 mm | - | 101 W/m² | - |
| 1777499222 | 18.33° C | 66% | 1010.8 hPa | 0 mm | - | 101 W/m² | - |
| 1777498918 | 17.78° C | 65% | 1010.7 hPa | 0 mm | - | 355 W/m² | - |
| 1777498615 | 18.33° C | 67% | 1010.5 hPa | 0 mm | - | 131 W/m² | - |
| 1777498311 | 18.33° C | 68% | 1010.4 hPa | 0 mm | - | 208 W/m² | - |
| 1777498010 | 18.89° C | 66% | 1010.4 hPa | 0 mm | - | 113 W/m² | - |
| 1777497706 | 18.89° C | 70% | 1010.4 hPa | 0 mm | - | 413 W/m² | - |
| 1777497403 | 18.33° C | 73% | 1010.5 hPa | 0 mm | - | 433 W/m² | - |
* Rain latest hour (hover to see other rain measurements)
** Current wind speed in m/s (hover to see current wind gust speed)